BEIDOU-3S M2S (C58)

Last updated on Wed Aug 26 2026 00:04:16 GMT+0000 (Coordinated Universal Time)

1 40748U 15037A 26237.05297516 -.00000030 00000+0 00000+0 0 9996 2 40748 54.8061 299.6713 0011009 258.2369 101.7193 1.86232423 75401
UTC large
Height (km)
Speed (km/s)
/
Latitude / Longitude
Inclination (degrees)
Orbital Period (minutes)
Azimuth
Elevation
Range (km)
Doppler Factor

Next 0 passes for location: London (51.5072 / 0.1276)

No passes found over London.
BEIDOU-3S M2S (C58)